JBU2104 TJSJ-KJFK

Flight info

Callsign JBU2104
Flight time 3h 25m
Altitude 34000
Route ACONY3 PALDE DCT DONQU DCT LUCTI/M075F340 L454 OKONU/N0433F340 DCT YAALE Y495 CAMRN
Aircraft A20N/M-SDE2E3FGHIRWXY/LB1

Departure

Time 2026-05-04 10:21
Airport Luis Munoz Marin International Airport (TJSJ)

Arrival

Time 2026-05-04 13:46
Airport John F. Kennedy International Airport (KJFK)
Time Latitude Longitude Altitude Speed Heading
2026-05-04 09:49 18.43551 -66.00550 24 ft 0 kts 359°
2026-05-04 10:12 18.43549 -66.00550 24 ft 1 kts 359°
2026-05-04 10:12 18.43532 -66.00549 24 ft 3 kts 357°
2026-05-04 10:13 18.43512 -66.00548 24 ft 3 kts 353°
2026-05-04 10:13 18.43492 -66.00545 24 ft 3 kts 345°
2026-05-04 10:13 18.43473 -66.00538 24 ft 3 kts 321°
2026-05-04 10:13 18.43463 -66.00525 24 ft 2 kts 272°
2026-05-04 10:14 18.43463 -66.00519 24 ft 0 kts 269°
2026-05-04 10:16 18.43463 -66.00520 24 ft 0 kts 269°
2026-05-04 10:17 18.43464 -66.00555 24 ft 10 kts 272°
2026-05-04 10:17 18.43465 -66.00658 24 ft 17 kts 270°
2026-05-04 10:19 18.43464 -66.01347 24 ft 18 kts 270°
2026-05-04 10:19 18.43509 -66.01434 24 ft 15 kts 357°
2026-05-04 10:19 18.43629 -66.01435 24 ft 18 kts
2026-05-04 10:19 18.43744 -66.01436 24 ft 14 kts 350°
2026-05-04 10:20 18.43752 -66.01497 24 ft 9 kts 272°
2026-05-04 10:20 18.43802 -66.01563 24 ft 12 kts 327°
2026-05-04 10:20 18.43864 -66.01517 24 ft 27 kts 69°
2026-05-04 10:20 18.44026 -66.01114 24 ft 91 kts 66°
2026-05-04 10:21 18.44347 -66.00325 24 ft 142 kts 67°
2026-05-04 10:21 18.44787 -65.99238 188 ft 171 kts 67°
2026-05-04 10:21 18.45280 -65.98111 972 ft 170 kts 59°
2026-05-04 10:21 18.46210 -65.97350 1742 ft 177 kts 20°
2026-05-04 10:22 18.48961 -65.97248 2947 ft 223 kts 349°
2026-05-04 10:22 18.50424 -65.97891 3709 ft 236 kts 336°
2026-05-04 10:22 18.51914 -65.98788 4232 ft 257 kts 325°
2026-05-04 10:23 18.53194 -66.00181 4859 ft 274 kts 310°
2026-05-04 10:23 18.54420 -66.01741 5727 ft 280 kts 312°
2026-05-04 10:25 18.63639 -66.12594 10990 ft 336 kts 312°
2026-05-04 10:25 18.65226 -66.14478 11510 ft 349 kts 311°
2026-05-04 10:25 18.66840 -66.16396 12289 ft 352 kts 311°
2026-05-04 10:25 18.68464 -66.18324 13088 ft 354 kts 311°
2026-05-04 10:26 18.70106 -66.20271 13842 ft 357 kts 310°
2026-05-04 10:26 18.71752 -66.22241 14569 ft 359 kts 310°
2026-05-04 10:26 18.73426 -66.24249 15275 ft 362 kts 310°
2026-05-04 10:26 18.75090 -66.26260 15989 ft 365 kts 309°
2026-05-04 10:27 18.76784 -66.28302 16686 ft 368 kts 309°
2026-05-04 10:27 18.78479 -66.30350 17354 ft 370 kts 309°
2026-05-04 10:27 18.80169 -66.32390 18001 ft 373 kts 309°
2026-05-04 10:27 18.81877 -66.34464 18622 ft 376 kts 309°
2026-05-04 10:28 18.83592 -66.36559 19191 ft 381 kts 309°
2026-05-04 10:28 18.85327 -66.38687 19779 ft 385 kts 309°
2026-05-04 10:28 18.87079 -66.40840 20348 ft 389 kts 309°
2026-05-04 10:28 18.88852 -66.43011 20896 ft 393 kts 309°
2026-05-04 10:29 18.90646 -66.45209 21425 ft 398 kts 309°
2026-05-04 10:29 18.92465 -66.47427 21935 ft 402 kts 310°
2026-05-04 10:29 18.94372 -66.49595 22433 ft 406 kts 314°
2026-05-04 10:29 18.96418 -66.51670 22911 ft 410 kts 316°
2026-05-04 10:30 18.98509 -66.53739 23370 ft 414 kts 316°
2026-05-04 10:30 19.00634 -66.55859 23862 ft 417 kts 316°
2026-05-04 10:30 19.02737 -66.57979 24306 ft 420 kts 316°
2026-05-04 10:30 19.04858 -66.60112 24763 ft 423 kts 316°
2026-05-04 10:31 19.06991 -66.62252 25215 ft 425 kts 316°
2026-05-04 10:31 19.09164 -66.64375 25648 ft 427 kts 318°
2026-05-04 10:32 19.22896 -66.76657 27995 ft 436 kts 319°
2026-05-04 10:33 19.25236 -66.78759 28355 ft 437 kts 318°
2026-05-04 10:33 19.27550 -66.80843 28684 ft 438 kts 318°
2026-05-04 10:33 19.29869 -66.82933 28997 ft 439 kts 318°
2026-05-04 10:33 19.32194 -66.85033 29297 ft 441 kts 318°
2026-05-04 10:34 19.34528 -66.87142 29580 ft 442 kts 318°
2026-05-04 10:34 19.36867 -66.89256 29855 ft 444 kts 318°
2026-05-04 10:34 19.39215 -66.91380 30138 ft 445 kts 318°
2026-05-04 10:34 19.41565 -66.93511 30390 ft 446 kts 317°
2026-05-04 10:35 19.43916 -66.95648 30630 ft 447 kts 317°
2026-05-04 10:35 19.46123 -66.97655 30848 ft 449 kts 317°
2026-05-04 10:35 19.48459 -66.99780 31098 ft 449 kts 318°
2026-05-04 10:35 19.50825 -67.01932 31383 ft 449 kts 318°
2026-05-04 10:36 19.53223 -67.04117 31662 ft 449 kts 318°
2026-05-04 10:36 19.55584 -67.06267 31951 ft 448 kts 318°
2026-05-04 10:36 19.57929 -67.08401 32232 ft 447 kts 318°
2026-05-04 10:36 19.60331 -67.10588 32523 ft 447 kts 318°
2026-05-04 10:37 19.62685 -67.12733 32789 ft 446 kts 318°
2026-05-04 10:37 19.65032 -67.14873 33044 ft 446 kts 318°
2026-05-04 10:37 19.67375 -67.17011 33303 ft 445 kts 318°
2026-05-04 10:37 19.69717 -67.19146 33556 ft 444 kts 318°
2026-05-04 10:39 19.83751 -67.31949 34069 ft 443 kts 318°
2026-05-04 10:39 19.86081 -67.34074 34069 ft 443 kts 318°
2026-05-04 10:40 19.90751 -67.38336 34068 ft 443 kts 318°
2026-05-04 10:40 19.95413 -67.42596 34067 ft 443 kts 318°
2026-05-04 10:41 20.00084 -67.46869 34066 ft 443 kts 318°
2026-05-04 10:41 20.04742 -67.51120 34065 ft 441 kts 318°
2026-05-04 10:42 20.09392 -67.55381 34064 ft 441 kts 317°
2026-05-04 10:42 20.14062 -67.59666 34064 ft 441 kts 317°
2026-05-04 10:43 20.18689 -67.63920 34063 ft 441 kts 317°
2026-05-04 10:45 20.37249 -67.81007 34059 ft 441 kts 317°
2026-05-04 10:45 20.41878 -67.85279 34058 ft 440 kts 317°
2026-05-04 10:46 20.46509 -67.89549 34058 ft 440 kts 317°
2026-05-04 10:46 20.51159 -67.93845 34057 ft 441 kts 317°
2026-05-04 10:47 20.55787 -67.98128 34056 ft 440 kts 317°
2026-05-04 10:47 20.60407 -68.02407 34055 ft 443 kts 317°
2026-05-04 10:49 20.81664 -68.14647 34039 ft 450 kts 346°
2026-05-04 10:50 20.87780 -68.16017 34037 ft 450 kts 345°
2026-05-04 10:52 21.12318 -68.21493 34035 ft 450 kts 345°
2026-05-04 10:52 21.18444 -68.22850 34034 ft 450 kts 345°
2026-05-04 10:54 21.42996 -68.28289 34031 ft 450 kts 345°
2026-05-04 10:56 21.67496 -68.33719 34033 ft 450 kts 345°
2026-05-04 10:57 21.73632 -68.35075 34031 ft 450 kts 345°
2026-05-04 10:57 21.79762 -68.36435 34018 ft 450 kts 345°
2026-05-04 10:58 21.85887 -68.37797 34018 ft 450 kts 345°
2026-05-04 10:58 21.92015 -68.39161 34018 ft 450 kts 345°
2026-05-04 10:59 21.98178 -68.40533 34018 ft 450 kts 345°
2026-05-04 10:59 22.04305 -68.41896 34018 ft 450 kts 345°
2026-05-04 11:00 22.10431 -68.43259 34018 ft 450 kts 345°
2026-05-04 11:02 22.34948 -68.48726 34017 ft 450 kts 345°
2026-05-04 11:05 22.80951 -68.59025 34017 ft 450 kts 344°
2026-05-04 11:06 22.87077 -68.60405 34017 ft 451 kts 344°
2026-05-04 11:06 22.93210 -68.61787 34017 ft 451 kts 344°
2026-05-04 11:10 23.35166 -68.71281 34018 ft 450 kts 343°
2026-05-04 11:12 23.59694 -68.76865 34019 ft 451 kts 343°
2026-05-04 11:12 23.65821 -68.78265 34019 ft 451 kts 343°
2026-05-04 11:13 23.71960 -68.79668 34020 ft 451 kts 343°
2026-05-04 11:13 23.78133 -68.81075 34020 ft 451 kts 343°
2026-05-04 11:14 23.84235 -68.82471 34020 ft 451 kts 343°
2026-05-04 11:16 24.08728 -68.88052 34022 ft 450 kts 342°
2026-05-04 11:16 24.14899 -68.89470 34022 ft 450 kts 342°
2026-05-04 11:17 24.21018 -68.90881 34022 ft 450 kts 342°
2026-05-04 11:19 24.45569 -68.96545 34024 ft 451 kts 342°
2026-05-04 11:19 24.51693 -68.97961 34025 ft 451 kts 342°
2026-05-04 11:20 24.57828 -68.99378 34025 ft 451 kts 342°
2026-05-04 11:20 24.63965 -69.00800 34026 ft 451 kts 341°
2026-05-04 11:22 24.88576 -69.06509 34028 ft 452 kts 341°
2026-05-04 11:23 24.94721 -69.07936 34028 ft 452 kts 341°
2026-05-04 11:25 25.16321 -69.12633 34030 ft 453 kts 342°
2026-05-04 11:25 25.22526 -69.13929 34031 ft 454 kts 342°
2026-05-04 11:27 25.50476 -69.19748 34032 ft 454 kts 342°
2026-05-04 11:28 25.56677 -69.21037 34033 ft 454 kts 342°
2026-05-04 11:28 25.62882 -69.22324 34033 ft 454 kts 342°
2026-05-04 11:29 25.69080 -69.23617 34034 ft 454 kts 342°
2026-05-04 11:29 25.75277 -69.24908 34035 ft 454 kts 341°
2026-05-04 11:33 26.18893 -69.34009 34039 ft 458 kts 341°
2026-05-04 11:33 26.25155 -69.35328 34040 ft 458 kts 341°
2026-05-04 11:34 26.31405 -69.36641 34041 ft 458 kts 341°
2026-05-04 11:34 26.37696 -69.37966 34042 ft 458 kts 341°
2026-05-04 11:35 26.43951 -69.39287 34042 ft 459 kts 341°
2026-05-04 11:35 26.50224 -69.40609 34043 ft 459 kts 341°
2026-05-04 11:36 26.56496 -69.41931 34044 ft 459 kts 341°
2026-05-04 11:36 26.62774 -69.43258 34045 ft 459 kts 341°
2026-05-04 11:37 26.69042 -69.44580 34045 ft 459 kts 341°
2026-05-04 11:37 26.75360 -69.45922 34046 ft 460 kts 341°
2026-05-04 11:38 26.81639 -69.47272 34047 ft 460 kts 340°
2026-05-04 11:38 26.87913 -69.48612 34059 ft 460 kts 340°
2026-05-04 11:39 26.94199 -69.49957 34075 ft 460 kts 340°
2026-05-04 11:41 27.16255 -69.54674 34081 ft 461 kts 340°
2026-05-04 11:41 27.22559 -69.56024 34082 ft 461 kts 340°
2026-05-04 11:42 27.28857 -69.57366 34083 ft 461 kts 340°
2026-05-04 11:42 27.35158 -69.58714 34084 ft 461 kts 340°
2026-05-04 11:43 27.41450 -69.60062 34091 ft 461 kts 340°
2026-05-04 11:43 27.47736 -69.61405 34091 ft 460 kts 340°
2026-05-04 11:44 27.54022 -69.62754 34087 ft 461 kts 340°
2026-05-04 11:44 27.60332 -69.64120 34089 ft 462 kts 340°
2026-05-04 11:45 27.66640 -69.65474 34090 ft 462 kts 340°
2026-05-04 11:45 27.72991 -69.66842 34091 ft 462 kts 340°
2026-05-04 11:46 27.79304 -69.68209 34093 ft 462 kts 340°
2026-05-04 11:46 27.85576 -69.69576 34094 ft 462 kts 340°
2026-05-04 11:47 27.91910 -69.70957 34095 ft 462 kts 340°
2026-05-04 11:47 27.98215 -69.72329 34096 ft 462 kts 340°
2026-05-04 11:48 28.04540 -69.73682 34097 ft 466 kts 339°
2026-05-04 11:48 28.10903 -69.75007 34097 ft 466 kts 339°
2026-05-04 11:49 28.17297 -69.76393 34092 ft 465 kts 338°
2026-05-04 11:49 28.23637 -69.77791 34091 ft 465 kts 338°
2026-05-04 11:50 28.29977 -69.79187 34092 ft 465 kts 338°
2026-05-04 11:50 28.36325 -69.80583 34093 ft 465 kts 338°
2026-05-04 11:51 28.42663 -69.81977 34094 ft 465 kts 338°
2026-05-04 11:51 28.49019 -69.83369 34095 ft 466 kts 338°
2026-05-04 11:52 28.55422 -69.84776 34096 ft 466 kts 338°
2026-05-04 11:52 28.61786 -69.86171 34098 ft 467 kts 338°
2026-05-04 11:53 28.68151 -69.87568 34103 ft 465 kts 338°
2026-05-04 11:53 28.74487 -69.88953 34102 ft 465 kts 338°
2026-05-04 11:55 28.99925 -69.94579 34104 ft 467 kts 338°
2026-05-04 11:56 29.06341 -69.95999 34106 ft 468 kts 338°
2026-05-04 11:56 29.12728 -69.97404 34107 ft 468 kts 338°
2026-05-04 11:57 29.19099 -69.98815 34108 ft 467 kts 338°
2026-05-04 11:57 29.25480 -70.00233 34109 ft 467 kts 338°
2026-05-04 11:58 29.31842 -70.01691 34110 ft 467 kts 338°
2026-05-04 11:58 29.38213 -70.03112 34111 ft 468 kts 338°
2026-05-04 11:59 29.44617 -70.04521 34112 ft 468 kts 338°
2026-05-04 11:59 29.51001 -70.05928 34113 ft 468 kts 338°
2026-05-04 12:00 29.57431 -70.07352 34114 ft 468 kts 338°
2026-05-04 12:00 29.63813 -70.08771 34115 ft 468 kts 338°
2026-05-04 12:01 29.70201 -70.10198 34116 ft 468 kts 338°
2026-05-04 12:02 29.92543 -70.15208 34119 ft 468 kts 338°
2026-05-04 12:03 29.98933 -70.16643 34120 ft 468 kts 337°
2026-05-04 12:03 30.05315 -70.18085 34120 ft 468 kts 337°
2026-05-04 12:04 30.10659 -70.19294 34121 ft 468 kts 337°
2026-05-04 12:04 30.18033 -70.20963 34122 ft 468 kts 337°
2026-05-04 12:05 30.23435 -70.22234 34127 ft 474 kts 338°
2026-05-04 12:05 30.29903 -70.23776 34128 ft 476 kts 339°
2026-05-04 12:06 30.36403 -70.25235 34129 ft 477 kts 339°
2026-05-04 12:06 30.42945 -70.26723 34130 ft 477 kts 339°
2026-05-04 12:07 30.49472 -70.28219 34131 ft 479 kts 339°
2026-05-04 12:07 30.56014 -70.29716 34131 ft 479 kts 339°
2026-05-04 12:08 30.62558 -70.31217 34132 ft 481 kts 339°
2026-05-04 12:08 30.69120 -70.32717 34134 ft 482 kts 339°
2026-05-04 12:09 30.75693 -70.34226 34135 ft 484 kts 339°
2026-05-04 12:09 30.82282 -70.35740 34136 ft 485 kts 339°
2026-05-04 12:10 30.88879 -70.37255 34137 ft 487 kts 339°
2026-05-04 12:10 30.95585 -70.38796 34138 ft 487 kts 339°
2026-05-04 12:11 31.02207 -70.40315 34139 ft 488 kts 339°
2026-05-04 12:11 31.08916 -70.41856 34137 ft 491 kts 339°
2026-05-04 12:12 31.15601 -70.43401 34138 ft 492 kts 339°
2026-05-04 12:12 31.22311 -70.44952 34139 ft 493 kts 339°
2026-05-04 12:14 31.49318 -70.51218 34141 ft 496 kts 339°
2026-05-04 12:15 31.56076 -70.52807 34141 ft 496 kts 339°
2026-05-04 12:15 31.62841 -70.54395 34141 ft 496 kts 339°
2026-05-04 12:16 31.69597 -70.55977 34142 ft 497 kts 339°
2026-05-04 12:16 31.76375 -70.57565 34141 ft 498 kts 339°
2026-05-04 12:17 31.83160 -70.59166 34140 ft 498 kts 339°
2026-05-04 12:17 31.89948 -70.60761 34139 ft 498 kts 339°
2026-05-04 12:18 31.96532 -70.62308 34139 ft 498 kts 339°
2026-05-04 12:18 32.03329 -70.63902 34139 ft 500 kts 339°
2026-05-04 12:19 32.10149 -70.65480 34139 ft 500 kts 339°
2026-05-04 12:19 32.17011 -70.67085 34140 ft 499 kts 338°
2026-05-04 12:20 32.23806 -70.68684 34140 ft 500 kts 338°
2026-05-04 12:20 32.30622 -70.70297 34140 ft 500 kts 338°
2026-05-04 12:21 32.37439 -70.71913 34141 ft 501 kts 338°
2026-05-04 12:21 32.44263 -70.73531 34141 ft 501 kts 338°
2026-05-04 12:22 32.51136 -70.75163 34142 ft 502 kts 338°
2026-05-04 12:22 32.57975 -70.76791 34132 ft 502 kts 337°
2026-05-04 12:23 32.64790 -70.78415 34141 ft 503 kts 337°
2026-05-04 12:23 32.71691 -70.80063 34148 ft 504 kts 337°
2026-05-04 12:24 32.78554 -70.81703 34148 ft 504 kts 337°
2026-05-04 12:24 32.85438 -70.83350 34148 ft 504 kts 336°
2026-05-04 12:25 32.92306 -70.84989 34148 ft 504 kts 336°
2026-05-04 12:25 32.99175 -70.86635 34147 ft 505 kts 336°
2026-05-04 12:26 33.06048 -70.88290 34146 ft 505 kts 336°
2026-05-04 12:26 33.12932 -70.89951 34146 ft 506 kts 336°
2026-05-04 12:27 33.19823 -70.91619 34146 ft 506 kts 336°
2026-05-04 12:27 33.26763 -70.93301 34146 ft 507 kts 335°
2026-05-04 12:28 33.33657 -70.94972 34146 ft 507 kts 335°
2026-05-04 12:28 33.40578 -70.96651 34146 ft 508 kts 335°
2026-05-04 12:29 33.47481 -70.98329 34145 ft 508 kts 335°
2026-05-04 12:29 33.54408 -71.00016 34145 ft 508 kts 335°
2026-05-04 12:30 33.61329 -71.01705 34146 ft 509 kts 335°
2026-05-04 12:30 33.68240 -71.03395 34147 ft 509 kts 335°
2026-05-04 12:31 33.75219 -71.05125 34147 ft 507 kts 334°
2026-05-04 12:31 33.82136 -71.06843 34146 ft 507 kts 334°
2026-05-04 12:32 33.92487 -71.09421 34146 ft 508 kts 334°
2026-05-04 12:33 33.99392 -71.11142 34146 ft 508 kts 334°
2026-05-04 12:33 34.06226 -71.12858 34146 ft 496 kts 335°
2026-05-04 12:34 34.13018 -71.14578 34144 ft 496 kts 335°
2026-05-04 12:34 34.19740 -71.16255 34145 ft 496 kts 335°
2026-05-04 12:35 34.26532 -71.17943 34144 ft 496 kts 335°
2026-05-04 12:35 34.33272 -71.19601 34144 ft 494 kts 335°
2026-05-04 12:36 34.40005 -71.21269 34144 ft 494 kts 335°
2026-05-04 12:36 34.46722 -71.22938 34144 ft 492 kts 335°
2026-05-04 12:37 34.53411 -71.24604 34146 ft 492 kts 335°
2026-05-04 12:37 34.60101 -71.26276 34146 ft 491 kts 335°
2026-05-04 12:38 34.66765 -71.27933 34145 ft 489 kts 335°
2026-05-04 12:38 34.73415 -71.29617 34145 ft 488 kts 335°
2026-05-04 12:39 34.80051 -71.31298 34145 ft 487 kts 335°
2026-05-04 12:39 34.86693 -71.32980 34148 ft 486 kts 335°
2026-05-04 12:40 34.93240 -71.34641 34147 ft 486 kts 335°
2026-05-04 12:40 34.99822 -71.36301 34146 ft 483 kts 335°
2026-05-04 12:41 35.06393 -71.37966 34146 ft 483 kts 335°
2026-05-04 12:41 35.12997 -71.39648 34146 ft 482 kts 335°
2026-05-04 12:42 35.19549 -71.41304 34145 ft 480 kts 335°
2026-05-04 12:42 35.26081 -71.42967 34145 ft 480 kts 335°
2026-05-04 12:43 35.32601 -71.44633 34143 ft 479 kts 335°
2026-05-04 12:43 35.39110 -71.46294 34140 ft 477 kts 335°
2026-05-04 12:44 35.45600 -71.47946 34140 ft 477 kts 335°
2026-05-04 12:44 35.52095 -71.49613 34139 ft 476 kts 335°
2026-05-04 12:45 35.58515 -71.51262 34139 ft 476 kts 335°
2026-05-04 12:45 35.65028 -71.52933 34139 ft 475 kts 335°
2026-05-04 12:46 35.71494 -71.54609 34138 ft 475 kts 335°
2026-05-04 12:46 35.77982 -71.56292 34138 ft 473 kts 335°
2026-05-04 12:47 35.84407 -71.57953 34139 ft 473 kts 335°
2026-05-04 12:47 35.90835 -71.59621 34139 ft 472 kts 335°
2026-05-04 12:48 35.97250 -71.61285 34138 ft 472 kts 335°
2026-05-04 12:48 36.03653 -71.62924 34138 ft 469 kts 335°
2026-05-04 12:49 36.10030 -71.64492 34136 ft 467 kts 334°
2026-05-04 12:49 36.16367 -71.66134 34117 ft 465 kts 334°
2026-05-04 12:50 36.22723 -71.67814 34115 ft 465 kts 334°
2026-05-04 12:50 36.29037 -71.69490 34114 ft 465 kts 334°
2026-05-04 12:51 36.35079 -71.71091 34114 ft 465 kts 334°
2026-05-04 12:51 36.41441 -71.72772 34113 ft 464 kts 334°
2026-05-04 12:52 36.47758 -71.74439 34113 ft 464 kts 334°
2026-05-04 12:52 36.54071 -71.76102 34113 ft 464 kts 334°
2026-05-04 12:53 36.60364 -71.77753 34112 ft 462 kts 334°
2026-05-04 12:53 36.66642 -71.79407 34111 ft 462 kts 334°
2026-05-04 12:54 36.72962 -71.81078 34111 ft 462 kts 335°
2026-05-04 12:54 36.79240 -71.82740 34110 ft 461 kts 335°
2026-05-04 12:55 36.85511 -71.84401 34110 ft 461 kts 335°
2026-05-04 12:55 36.91772 -71.86063 34109 ft 461 kts 335°
2026-05-04 12:56 36.98033 -71.87724 34109 ft 459 kts 335°
2026-05-04 12:56 37.04273 -71.89379 34108 ft 459 kts 335°
2026-05-04 12:57 37.10551 -71.91052 34107 ft 458 kts 335°
2026-05-04 12:57 37.16778 -71.92717 34106 ft 458 kts 335°
2026-05-04 12:58 37.22998 -71.94384 34105 ft 458 kts 335°
2026-05-04 12:58 37.29218 -71.96051 34104 ft 458 kts 335°
2026-05-04 12:59 37.34344 -71.97633 34104 ft 443 kts 326°
2026-05-04 12:59 37.39732 -72.01027 34104 ft 429 kts 319°
2026-05-04 13:00 37.45003 -72.04560 34101 ft 430 kts 320°
2026-05-04 13:00 37.50331 -72.07987 34098 ft 430 kts 321°
2026-05-04 13:01 37.55686 -72.11359 34097 ft 431 kts 321°
2026-05-04 13:01 37.61086 -72.14727 34097 ft 431 kts 321°
2026-05-04 13:02 37.66465 -72.18065 34093 ft 431 kts 321°
2026-05-04 13:02 37.71840 -72.21392 34076 ft 431 kts 321°
2026-05-04 13:03 37.77222 -72.24718 34071 ft 431 kts 321°
2026-05-04 13:03 37.82601 -72.28043 34071 ft 431 kts 321°
2026-05-04 13:04 37.87987 -72.31374 34070 ft 431 kts 321°
2026-05-04 13:04 37.93404 -72.34727 34070 ft 431 kts 321°
2026-05-04 13:05 37.98784 -72.38061 34070 ft 431 kts 321°
2026-05-04 13:05 38.04154 -72.41401 34071 ft 430 kts 321°
2026-05-04 13:06 38.09507 -72.44736 34071 ft 430 kts 322°
2026-05-04 13:06 38.14903 -72.48103 34071 ft 430 kts 322°
2026-05-04 13:07 38.20262 -72.51444 34070 ft 429 kts 322°
2026-05-04 13:07 38.25604 -72.54780 34070 ft 428 kts 322°
2026-05-04 13:08 38.30938 -72.58123 34070 ft 428 kts 322°
2026-05-04 13:08 38.36270 -72.61469 34071 ft 427 kts 322°
2026-05-04 13:09 38.41595 -72.64818 34074 ft 427 kts 322°
2026-05-04 13:09 38.46905 -72.68158 34074 ft 426 kts 322°
2026-05-04 13:10 38.52254 -72.71527 34074 ft 426 kts 322°
2026-05-04 13:10 38.57547 -72.74864 34074 ft 425 kts 323°
2026-05-04 13:11 38.62835 -72.78205 34073 ft 424 kts 323°
2026-05-04 13:11 38.68110 -72.81546 34073 ft 424 kts 323°
2026-05-04 13:11 38.70745 -72.83217 33898 ft 423 kts 323°
2026-05-04 13:12 38.73383 -72.84893 33648 ft 424 kts 323°
2026-05-04 13:12 38.76049 -72.86589 33395 ft 422 kts 323°
2026-05-04 13:12 38.78663 -72.88254 33145 ft 420 kts 323°
2026-05-04 13:12 38.81270 -72.89915 32894 ft 418 kts 323°
2026-05-04 13:13 38.83858 -72.91564 32645 ft 415 kts 323°
2026-05-04 13:13 38.86435 -72.93205 32394 ft 413 kts 324°
2026-05-04 13:13 38.88995 -72.94841 32144 ft 411 kts 324°
2026-05-04 13:13 38.91533 -72.96459 31669 ft 406 kts 324°
2026-05-04 13:14 38.94051 -72.98071 31023 ft 404 kts 324°
2026-05-04 13:14 38.96556 -72.99679 30397 ft 401 kts 324°
2026-05-04 13:14 38.99040 -73.01284 29800 ft 398 kts 324°
2026-05-04 13:14 39.01494 -73.02862 29215 ft 394 kts 325°
2026-05-04 13:15 39.03931 -73.04433 28648 ft 390 kts 325°
2026-05-04 13:15 39.06339 -73.05982 28089 ft 386 kts 325°
2026-05-04 13:15 39.08723 -73.07521 27543 ft 382 kts 325°
2026-05-04 13:15 39.11109 -73.09057 27010 ft 377 kts 326°
2026-05-04 13:16 39.13438 -73.10562 26487 ft 373 kts 326°
2026-05-04 13:16 39.15742 -73.12045 25974 ft 369 kts 326°
2026-05-04 13:16 39.18016 -73.13513 25470 ft 364 kts 326°
2026-05-04 13:16 39.20250 -73.14954 24982 ft 360 kts 327°
2026-05-04 13:17 39.22495 -73.16408 24491 ft 356 kts 327°
2026-05-04 13:17 39.24698 -73.17831 24006 ft 353 kts 327°
2026-05-04 13:17 39.26704 -73.19129 23570 ft 349 kts 327°
2026-05-04 13:17 39.28887 -73.20540 23097 ft 346 kts 327°
2026-05-04 13:18 39.30895 -73.21837 22653 ft 342 kts 327°
2026-05-04 13:18 39.33011 -73.23206 22175 ft 340 kts 328°
2026-05-04 13:18 39.35110 -73.24566 21715 ft 336 kts 328°
2026-05-04 13:18 39.37186 -73.25909 21259 ft 333 kts 328°
2026-05-04 13:19 39.39241 -73.27241 20809 ft 329 kts 328°
2026-05-04 13:19 39.41273 -73.28569 20359 ft 325 kts 326°
2026-05-04 13:19 39.43228 -73.30053 19926 ft 326 kts 324°
2026-05-04 13:19 39.45157 -73.31545 19495 ft 322 kts 324°
2026-05-04 13:20 39.47061 -73.33021 19056 ft 318 kts 324°
2026-05-04 13:20 39.48942 -73.34485 18623 ft 314 kts 324°
2026-05-04 13:20 39.50792 -73.35930 18207 ft 309 kts 324°
2026-05-04 13:20 39.52614 -73.37359 17783 ft 305 kts 324°
2026-05-04 13:21 39.54419 -73.38778 17353 ft 302 kts 324°
2026-05-04 13:21 39.56220 -73.40192 16959 ft 297 kts 324°
2026-05-04 13:21 39.57970 -73.41564 16589 ft 292 kts 324°
2026-05-04 13:21 39.59708 -73.42924 16224 ft 292 kts 324°
2026-05-04 13:22 39.61442 -73.44284 15836 ft 291 kts 324°
2026-05-04 13:22 39.63172 -73.45641 15453 ft 291 kts 324°
2026-05-04 13:22 39.64895 -73.46993 15065 ft 290 kts 324°
2026-05-04 13:22 39.66616 -73.48339 14677 ft 289 kts 324°
2026-05-04 13:23 39.68334 -73.49683 14291 ft 288 kts 324°
2026-05-04 13:23 39.70053 -73.51024 13901 ft 288 kts 324°
2026-05-04 13:23 39.71766 -73.52360 13512 ft 287 kts 324°
2026-05-04 13:23 39.73479 -73.53692 13120 ft 287 kts 324°
2026-05-04 13:24 39.75185 -73.55016 12736 ft 287 kts 324°
2026-05-04 13:24 39.76918 -73.56360 12337 ft 286 kts 324°
2026-05-04 13:24 39.78620 -73.57678 11945 ft 285 kts 324°
2026-05-04 13:25 39.82021 -73.60301 11170 ft 283 kts 324°
2026-05-04 13:25 39.83711 -73.61597 10792 ft 281 kts 324°
2026-05-04 13:25 39.85381 -73.62868 10443 ft 276 kts 324°
2026-05-04 13:25 39.87028 -73.64117 10097 ft 272 kts 324°
2026-05-04 13:26 39.88673 -73.65358 9791 ft 267 kts 324°
2026-05-04 13:26 39.90261 -73.66547 9570 ft 259 kts 324°
2026-05-04 13:26 39.91819 -73.67702 9421 ft 258 kts 324°
2026-05-04 13:26 39.93370 -73.68863 9270 ft 257 kts 321°
2026-05-04 13:27 39.94577 -73.70487 9116 ft 250 kts 295°
2026-05-04 13:27 39.95353 -73.72607 9061 ft 263 kts 291°
2026-05-04 13:27 39.96176 -73.74733 9019 ft 264 kts 294°
2026-05-04 13:27 39.97138 -73.76773 9009 ft 265 kts 298°
2026-05-04 13:28 39.98156 -73.78778 9007 ft 266 kts 298°
2026-05-04 13:28 39.99142 -73.80807 9006 ft 265 kts 297°
2026-05-04 13:28 40.00099 -73.82857 9006 ft 265 kts 296°
2026-05-04 13:28 40.01165 -73.84798 8999 ft 267 kts 310°
2026-05-04 13:29 40.02807 -73.86059 9005 ft 279 kts 337°
2026-05-04 13:29 40.04768 -73.86252 9006 ft 292 kts
2026-05-04 13:29 40.06697 -73.85350 9014 ft 301 kts 24°
2026-05-04 13:29 40.08512 -73.83979 9009 ft 303 kts 26°
2026-05-04 13:30 40.10303 -73.82609 9007 ft 303 kts 26°
2026-05-04 13:30 40.12120 -73.81229 9006 ft 303 kts 26°
2026-05-04 13:30 40.13935 -73.79851 9006 ft 303 kts 26°
2026-05-04 13:30 40.15753 -73.78471 8984 ft 301 kts 26°
2026-05-04 13:31 40.17552 -73.77104 8558 ft 300 kts 26°
2026-05-04 13:31 40.19350 -73.75738 8134 ft 298 kts 26°
2026-05-04 13:31 40.21132 -73.74376 7704 ft 297 kts 26°
2026-05-04 13:31 40.22906 -73.73017 7286 ft 295 kts 26°
2026-05-04 13:32 40.24665 -73.71665 6873 ft 293 kts 26°
2026-05-04 13:32 40.26418 -73.70314 6449 ft 291 kts 26°
2026-05-04 13:32 40.28171 -73.68956 6032 ft 290 kts 26°
2026-05-04 13:32 40.29896 -73.67616 5617 ft 288 kts 26°
2026-05-04 13:33 40.31614 -73.66280 5194 ft 287 kts 26°
2026-05-04 13:33 40.33323 -73.64953 4776 ft 285 kts 26°
2026-05-04 13:33 40.35022 -73.63635 4359 ft 284 kts 26°
2026-05-04 13:33 40.36711 -73.62330 3950 ft 282 kts 26°
2026-05-04 13:34 40.38396 -73.61031 3531 ft 280 kts 26°
2026-05-04 13:34 40.40074 -73.59739 3164 ft 281 kts 26°
2026-05-04 13:34 40.41755 -73.58449 3037 ft 280 kts 26°
2026-05-04 13:34 40.43436 -73.57158 3005 ft 280 kts 26°
2026-05-04 13:35 40.45134 -73.55854 2998 ft 280 kts 26°
2026-05-04 13:35 40.48491 -73.53279 2995 ft 280 kts 26°
2026-05-04 13:35 40.50171 -73.51991 2994 ft 280 kts 26°
2026-05-04 13:36 40.51851 -73.50703 2994 ft 280 kts 26°
2026-05-04 13:36 40.53525 -73.49419 2993 ft 280 kts 26°
2026-05-04 13:36 40.55208 -73.48130 2993 ft 280 kts 26°
2026-05-04 13:36 40.56893 -73.46856 2990 ft 279 kts 22°
2026-05-04 13:37 40.58702 -73.46157 2786 ft 267 kts 359°
2026-05-04 13:37 40.60504 -73.46342 2531 ft 254 kts 346°
2026-05-04 13:37 40.62229 -73.46684 2442 ft 248 kts 346°
2026-05-04 13:37 40.63375 -73.46904 2390 ft 245 kts 346°
2026-05-04 13:38 40.65557 -73.47318 2242 ft 229 kts 346°
2026-05-04 13:38 40.67119 -73.47611 2152 ft 225 kts 346°
2026-05-04 13:38 40.68654 -73.47902 2065 ft 222 kts 346°
2026-05-04 13:38 40.70140 -73.48184 1991 ft 210 kts 346°
2026-05-04 13:39 40.71526 -73.48433 1997 ft 189 kts 346°
2026-05-04 13:39 40.72825 -73.48654 1997 ft 190 kts 346°
2026-05-04 13:39 40.74069 -73.49091 1973 ft 182 kts 324°
2026-05-04 13:39 40.74864 -73.50293 2004 ft 171 kts 295°
2026-05-04 13:40 40.75445 -73.51650 1990 ft 171 kts 296°
2026-05-04 13:40 40.76066 -73.52996 1969 ft 172 kts 296°
2026-05-04 13:40 40.76688 -73.54345 1984 ft 172 kts 296°
2026-05-04 13:40 40.77307 -73.55693 1987 ft 172 kts 296°
2026-05-04 13:41 40.77901 -73.57052 1981 ft 171 kts 288°
2026-05-04 13:41 40.77955 -73.58555 2012 ft 164 kts 256°
2026-05-04 13:41 40.77662 -73.60030 1999 ft 164 kts 256°
2026-05-04 13:42 40.77149 -73.62960 1989 ft 164 kts 256°
2026-05-04 13:42 40.76835 -73.64402 1977 ft 163 kts 246°
2026-05-04 13:42 40.76201 -73.65598 1981 ft 150 kts 232°
2026-05-04 13:42 40.75523 -73.66493 1991 ft 135 kts 226°
2026-05-04 13:43 40.74788 -73.67261 1991 ft 135 kts 221°
2026-05-04 13:43 40.74008 -73.67964 1988 ft 136 kts 218°
2026-05-04 13:43 40.73201 -73.68639 1977 ft 136 kts 217°
2026-05-04 13:43 40.72390 -73.69293 1789 ft 137 kts 216°
2026-05-04 13:44 40.71576 -73.69940 1600 ft 137 kts 216°
2026-05-04 13:44 40.70757 -73.70586 1417 ft 137 kts 215°
2026-05-04 13:44 40.69936 -73.71232 1233 ft 138 kts 215°
2026-05-04 13:44 40.69112 -73.71880 1052 ft 139 kts 214°
2026-05-04 13:45 40.68290 -73.72526 878 ft 138 kts 214°
2026-05-04 13:45 40.67453 -73.73183 699 ft 138 kts 213°
2026-05-04 13:45 40.66627 -73.73832 520 ft 139 kts 212°
2026-05-04 13:45 40.65798 -73.74483 341 ft 139 kts 211°
2026-05-04 13:46 40.65254 -73.74909 221 ft 139 kts 211°
2026-05-04 13:46 40.64160 -73.75771 29 ft 124 kts 211°
2026-05-04 13:46 40.63731 -73.76108 28 ft 89 kts 210°
2026-05-04 13:46 40.63352 -73.76404 28 ft 38 kts 211°
2026-05-04 13:47 40.63168 -73.76549 28 ft 27 kts 211°
2026-05-04 13:47 40.63041 -73.76677 28 ft 20 kts 226°
2026-05-04 13:47 40.62964 -73.76811 28 ft 17 kts 239°
2026-05-04 13:47 40.62926 -73.76930 28 ft 11 kts 269°
2026-05-04 13:48 40.62953 -73.77022 28 ft 15 kts 300°
2026-05-04 13:48 40.63014 -73.77157 28 ft 15 kts 301°
2026-05-04 13:48 40.63075 -73.77293 28 ft 21 kts 301°
2026-05-04 13:48 40.63144 -73.77440 28 ft 17 kts 314°
2026-05-04 13:49 40.63234 -73.77417 28 ft 16 kts 31°
2026-05-04 13:49 40.63348 -73.77328 28 ft 22 kts 31°
2026-05-04 13:49 40.63482 -73.77223 28 ft 21 kts 31°
2026-05-04 13:49 40.63602 -73.77129 28 ft 20 kts 31°
2026-05-04 13:50 40.63723 -73.77034 28 ft 20 kts 31°
2026-05-04 13:50 40.63848 -73.76936 28 ft 20 kts 31°
2026-05-04 13:50 40.63976 -73.76836 28 ft 22 kts 31°
2026-05-04 13:50 40.64111 -73.76731 28 ft 22 kts 31°
2026-05-04 13:51 40.64235 -73.76637 28 ft 19 kts 16°
2026-05-04 13:51 40.64299 -73.76709 28 ft 10 kts 299°
2026-05-04 13:51 40.64336 -73.76795 28 ft 14 kts 300°
2026-05-04 13:51 40.64384 -73.76902 28 ft 13 kts 300°
2026-05-04 13:52 40.64439 -73.77135 28 ft 15 kts 284°
2026-05-04 13:52 40.64434 -73.77245 28 ft 10 kts 265°
2026-05-04 13:52 40.64433 -73.77327 28 ft 9 kts 270°
2026-05-04 13:53 40.64418 -73.77428 28 ft 12 kts 224°
2026-05-04 13:53 40.64350 -73.77480 28 ft 10 kts 209°
2026-05-04 13:53 40.64308 -73.77510 28 ft 5 kts 209°
2026-05-04 13:54 40.64241 -73.77588 28 ft 6 kts 276°
2026-05-04 13:54 40.64268 -73.77620 28 ft 5 kts 333°
2026-05-04 13:54 40.64360 -73.77687 28 ft 9 kts 330°
2026-05-04 13:55 40.64411 -73.77744 28 ft 7 kts 342°
2026-05-04 13:55 40.64446 -73.77672 28 ft 3 kts 64°
2026-05-04 13:55 40.64450 -73.77660 28 ft 0 kts 64°